Time,TemperatureF,DewpointF,PressureIn,WindDirection,WindDirectionDegrees,WindSpeedMPH,WindSpeedGustMPH,Humidity,HourlyPrecipIn,Conditions,Clouds,dailyrainin,SoftwareType,DateUTC
2013-01-21 00:00:00,3.2,-5.6,29.15,NW,322,8.3,8.7,66,0.00,,---,0.00,VWS V14.01,2013-01-21 06:00:00,
2013-01-21 00:06:00,3.0,-5.8,29.15,NW,324,7.6,8.7,66,0.00,,---,0.00,VWS V14.01,2013-01-21 06:06:00,
2013-01-21 00:11:00,3.0,-5.8,29.15,NW,308,8.1,8.1,66,0.00,,---,0.00,VWS V14.01,2013-01-21 06:11:00,
2013-01-21 00:16:00,2.8,-5.9,29.15,NW,323,11.0,11.0,66,0.00,,---,0.00,VWS V14.01,2013-01-21 06:16:00,
2013-01-21 00:21:00,2.7,-6.1,29.15,North,353,11.0,11.0,66,0.00,,---,0.00,VWS V14.01,2013-01-21 06:21:00,
2013-01-21 00:27:00,2.7,-6.1,29.15,WNW,284,5.4,8.1,66,0.00,,---,0.00,VWS V14.01,2013-01-21 06:27:00,
2013-01-21 00:32:00,2.5,-6.3,29.12,NNE,18,14.5,14.5,66,0.00,,---,0.00,VWS V14.01,2013-01-21 06:32:00,
2013-01-21 00:38:00,2.3,-6.4,29.12,NW,315,8.7,8.7,66,0.00,,---,0.00,VWS V14.01,2013-01-21 06:38:00,
2013-01-21 00:43:00,2.3,-6.4,29.12,NNW,338,7.6,11.0,66,0.00,,---,0.00,VWS V14.01,2013-01-21 06:43:00,
2013-01-21 00:48:00,2.1,-6.6,29.12,NNW,341,4.9,8.7,66,0.00,,---,0.00,VWS V14.01,2013-01-21 06:48:00,
2013-01-21 00:53:00,2.1,-6.6,29.12,North,349,6.3,6.3,66,0.00,,---,0.00,VWS V14.01,2013-01-21 06:53:00,
2013-01-21 00:59:00,1.9,-6.8,29.12,NNW,341,5.8,10.5,66,0.00,,---,0.00,VWS V14.01,2013-01-21 06:59:00,
2013-01-21 01:04:00,1.8,-7.0,29.12,WNW,290,10.1,11.0,66,0.00,,---,0.00,VWS V14.01,2013-01-21 07:04:00,
2013-01-21 01:10:00,1.6,-7.1,29.12,NW,320,12.8,12.8,66,0.00,,---,0.00,VWS V14.01,2013-01-21 07:10:00,
2013-01-21 01:16:00,1.4,-7.3,29.12,NW,305,6.7,11.0,66,0.00,,---,0.00,VWS V14.01,2013-01-21 07:16:00,
2013-01-21 01:21:00,1.2,-7.5,29.12,NNW,337,5.8,11.0,66,0.00,,---,0.00,VWS V14.01,2013-01-21 07:21:00,
2013-01-21 01:26:00,1.2,-7.5,29.12,NNW,328,8.1,8.7,66,0.00,,---,0.00,VWS V14.01,2013-01-21 07:26:00,
2013-01-21 01:31:00,1.2,-7.5,29.12,NNW,339,7.6,7.6,66,0.00,,---,0.00,VWS V14.01,2013-01-21 07:31:00,
2013-01-21 01:37:00,1.0,-7.7,29.12,West,272,3.6,6.3,66,0.00,,---,0.00,VWS V14.01,2013-01-21 07:37:00,
2013-01-21 01:42:00,0.9,-7.8,29.12,NW,325,6.3,8.1,66,0.00,,---,0.00,VWS V14.01,2013-01-21 07:42:00,
2013-01-21 01:48:00,0.7,-8.0,29.12,NNW,348,5.4,6.3,66,0.00,,---,0.00,VWS V14.01,2013-01-21 07:48:00,
2013-01-21 01:53:00,0.7,-8.0,29.12,WNW,296,4.0,4.0,66,0.00,,---,0.00,VWS V14.01,2013-01-21 07:53:00,
2013-01-21 01:59:00,0.3,-8.3,29.12,NW,321,2.2,4.9,66,0.00,,---,0.00,VWS V14.01,2013-01-21 07:59:00,
2013-01-21 02:04:00,0.3,-8.3,29.12,West,273,4.0,6.3,66,0.00,,---,0.00,VWS V14.01,2013-01-21 08:04:00,
2013-01-21 02:10:00,0.1,-8.5,29.12,NW,325,2.7,4.9,66,0.00,,---,0.00,VWS V14.01,2013-01-21 08:10:00,
2013-01-21 02:16:00,0.1,-8.5,29.12,NW,324,4.9,4.9,66,0.00,,---,0.00,VWS V14.01,2013-01-21 08:16:00,
2013-01-21 02:21:00,0.1,-8.5,29.12,NW,318,6.7,6.7,66,0.00,,---,0.00,VWS V14.01,2013-01-21 08:21:00,
2013-01-21 02:27:00,0.0,-8.7,29.12,WNW,290,5.8,6.3,66,0.00,,---,0.00,VWS V14.01,2013-01-21 08:27:00,
2013-01-21 02:32:00,0.0,-8.7,29.12,WNW,290,4.5,5.8,66,0.00,,---,0.00,VWS V14.01,2013-01-21 08:32:00,
2013-01-21 02:38:00,0.0,-8.7,29.12,WNW,285,3.6,3.6,66,0.00,,---,0.00,VWS V14.01,2013-01-21 08:38:00,
2013-01-21 02:44:00,-0.2,-8.9,29.12,WNW,291,3.1,4.0,66,0.00,,---,0.00,VWS V14.01,2013-01-21 08:44:00,
2013-01-21 02:49:00,-0.4,-9.0,29.12,WNW,295,4.9,5.4,66,0.00,,---,0.00,VWS V14.01,2013-01-21 08:49:00,
2013-01-21 02:55:00,-0.6,-9.2,29.12,West,276,3.1,4.0,66,0.00,,---,0.00,VWS V14.01,2013-01-21 08:55:00,
2013-01-21 03:01:00,-0.6,-9.2,29.12,NW,314,3.1,4.0,66,0.00,,---,0.00,VWS V14.01,2013-01-21 09:01:00,
2013-01-21 03:06:00,-0.8,-9.4,29.12,WNW,285,3.6,3.6,66,0.00,,---,0.00,VWS V14.01,2013-01-21 09:06:00,
2013-01-21 03:12:00,-0.8,-9.4,29.12,NNW,331,4.0,4.9,66,0.00,,---,0.00,VWS V14.01,2013-01-21 09:12:00,
2013-01-21 03:17:00,-0.8,-9.4,29.09,WNW,292,2.7,4.0,66,0.00,,---,0.00,VWS V14.01,2013-01-21 09:17:00,
2013-01-21 03:23:00,-0.8,-9.4,29.09,WNW,302,3.6,4.9,66,0.00,,---,0.00,VWS V14.01,2013-01-21 09:23:00,
2013-01-21 03:29:00,-0.9,-9.6,29.09,West,280,2.7,4.9,66,0.00,,---,0.00,VWS V14.01,2013-01-21 09:29:00,
2013-01-21 03:34:00,-0.9,-9.6,29.09,WNW,290,3.1,4.0,66,0.00,,---,0.00,VWS V14.01,2013-01-21 09:34:00,
2013-01-21 03:39:00,-0.9,-9.6,29.09,WNW,291,4.0,5.4,66,0.00,,---,0.00,VWS V14.01,2013-01-21 09:39:00,
2013-01-21 03:44:00,-0.9,-9.6,29.09,NW,312,2.7,3.6,66,0.00,,---,0.00,VWS V14.01,2013-01-21 09:44:00,
2013-01-21 03:50:00,-0.9,-9.6,29.09,WNW,297,5.4,5.4,66,0.00,,---,0.00,VWS V14.01,2013-01-21 09:50:00,
2013-01-21 03:55:00,-0.9,-9.6,29.09,West,280,5.4,5.4,66,0.00,,---,0.00,VWS V14.01,2013-01-21 09:55:00,
2013-01-21 04:01:00,-0.9,-9.6,29.09,North,5,5.8,5.8,66,0.00,,---,0.00,VWS V14.01,2013-01-21 10:01:00,
2013-01-21 04:06:00,-0.9,-9.6,29.09,WNW,302,4.9,4.9,66,0.00,,---,0.00,VWS V14.01,2013-01-21 10:06:00,
2013-01-21 04:12:00,-0.8,-9.4,29.09,NW,306,3.1,3.6,66,0.00,,---,0.00,VWS V14.01,2013-01-21 10:12:00,
2013-01-21 04:17:00,-0.8,-9.4,29.09,WNW,291,4.9,5.4,66,0.00,,---,0.00,VWS V14.01,2013-01-21 10:17:00,
2013-01-21 04:23:00,-0.8,-9.4,29.09,NW,314,5.8,5.8,66,0.00,,---,0.00,VWS V14.01,2013-01-21 10:23:00,
2013-01-21 04:29:00,-0.9,-9.6,29.09,NW,312,4.0,4.0,66,0.00,,---,0.00,VWS V14.01,2013-01-21 10:29:00,
2013-01-21 04:34:00,-0.9,-9.6,29.09,NNW,333,3.1,5.8,66,0.00,,---,0.00,VWS V14.01,2013-01-21 10:34:00,
2013-01-21 04:39:00,-0.9,-9.6,29.09,NNW,340,3.1,5.8,66,0.00,,---,0.00,VWS V14.01,2013-01-21 10:39:00,
2013-01-21 04:44:00,-0.9,-9.6,29.09,NW,325,8.3,10.5,66,0.00,,---,0.00,VWS V14.01,2013-01-21 10:44:00,
2013-01-21 04:50:00,-0.9,-9.6,29.09,West,266,3.6,7.6,66,0.00,,---,0.00,VWS V14.01,2013-01-21 10:50:00,
2013-01-21 04:56:00,-1.1,-9.7,29.09,NNW,327,4.9,12.3,66,0.00,,---,0.00,VWS V14.01,2013-01-21 10:56:00,
2013-01-21 05:01:00,-1.1,-9.7,29.09,NNW,341,6.3,8.1,66,0.00,,---,0.00,VWS V14.01,2013-01-21 11:01:00,
2013-01-21 05:08:00,-1.3,-9.9,29.09,NNW,327,8.7,8.7,66,0.00,,---,0.00,VWS V14.01,2013-01-21 11:08:00,
2013-01-21 05:14:00,-1.3,-9.9,29.09,NNW,344,6.3,6.3,66,0.00,,---,0.00,VWS V14.01,2013-01-21 11:14:00,
2013-01-21 05:19:00,-1.5,-10.1,29.09,West,278,7.6,10.1,66,0.00,,---,0.00,VWS V14.01,2013-01-21 11:19:00,
2013-01-21 05:25:00,-1.5,-10.1,29.09,NNW,334,4.9,13.2,66,0.00,,---,0.00,VWS V14.01,2013-01-21 11:25:00,
2013-01-21 05:30:00,-1.7,-10.2,29.09,NW,304,5.8,5.8,66,0.00,,---,0.00,VWS V14.01,2013-01-21 11:30:00,
2013-01-21 05:36:00,-1.8,-10.4,29.09,NW,304,4.5,7.2,66,0.00,,---,0.00,VWS V14.01,2013-01-21 11:36:00,
2013-01-21 05:41:00,-1.8,-10.4,29.09,NW,320,6.3,8.3,66,0.00,,---,0.00,VWS V14.01,2013-01-21 11:41:00,
2013-01-21 05:47:00,-1.8,-10.4,29.09,NW,306,9.6,9.6,66,0.00,,---,0.00,VWS V14.01,2013-01-21 11:47:00,
2013-01-21 05:52:00,-1.8,-10.4,29.09,West,280,8.3,9.6,66,0.00,,---,0.00,VWS V14.01,2013-01-21 11:52:00,
2013-01-21 05:58:00,-1.8,-10.4,29.09,WNW,286,5.4,7.6,66,0.00,,---,0.00,VWS V14.01,2013-01-21 11:58:00,
2013-01-21 06:04:00,-1.8,-10.4,29.09,WNW,298,8.3,9.6,66,0.00,,---,0.00,VWS V14.01,2013-01-21 12:04:00,
2013-01-21 06:09:00,-1.8,-10.4,29.09,NNW,341,6.7,8.7,66,0.00,,---,0.00,VWS V14.01,2013-01-21 12:09:00,
2013-01-21 06:15:00,-1.8,-10.4,29.09,NNW,343,3.6,7.6,66,0.00,,---,0.00,VWS V14.01,2013-01-21 12:15:00,
2013-01-21 06:21:00,-1.8,-10.4,29.09,North,3,8.1,8.7,66,0.00,,---,0.00,VWS V14.01,2013-01-21 12:21:00,
2013-01-21 06:26:00,-2.0,-10.6,29.09,North,9,7.6,7.6,66,0.00,,---,0.00,VWS V14.01,2013-01-21 12:26:00,
2013-01-21 06:32:00,-2.4,-10.9,29.09,North,0,8.7,10.1,66,0.00,,---,0.00,VWS V14.01,2013-01-21 12:32:00,
2013-01-21 06:37:00,-2.6,-11.1,29.09,NNW,339,6.7,8.1,66,0.00,,---,0.00,VWS V14.01,2013-01-21 12:37:00,
2013-01-21 06:43:00,-2.9,-11.4,29.09,North,353,9.6,10.5,66,0.00,,---,0.00,VWS V14.01,2013-01-21 12:43:00,
2013-01-21 06:49:00,-3.5,-12.0,29.09,North,1,8.7,10.5,66,0.00,,---,0.00,VWS V14.01,2013-01-21 12:49:00,
2013-01-21 06:54:00,-3.8,-12.3,29.09,NNW,333,4.9,12.3,66,0.00,,---,0.00,VWS V14.01,2013-01-21 12:54:00,
2013-01-21 06:59:00,-4.2,-12.6,29.09,North,353,4.0,10.5,66,0.00,,---,0.00,VWS V14.01,2013-01-21 12:59:00,
2013-01-21 07:04:00,-4.4,-12.8,29.09,NNW,344,8.3,11.0,66,0.00,,---,0.00,VWS V14.01,2013-01-21 13:04:00,
2013-01-21 07:10:00,-4.5,-13.0,29.09,North,350,4.0,5.8,66,0.00,,---,0.00,VWS V14.01,2013-01-21 13:10:00,
2013-01-21 07:15:00,-4.7,-13.2,29.12,NNW,337,6.3,8.3,66,0.00,,---,0.00,VWS V14.01,2013-01-21 13:15:00,
2013-01-21 07:20:00,-4.9,-13.3,29.12,North,11,8.7,8.7,66,0.00,,---,0.00,VWS V14.01,2013-01-21 13:20:00,
2013-01-21 07:25:00,-5.1,-13.5,29.12,NNW,327,5.4,8.3,66,0.00,,---,0.00,VWS V14.01,2013-01-21 13:25:00,
2013-01-21 07:30:00,-5.3,-13.7,29.12,NNW,340,6.3,10.1,66,0.00,,---,0.00,VWS V14.01,2013-01-21 13:30:00,
2013-01-21 07:36:00,-5.6,-14.0,29.12,NNW,340,8.7,8.7,66,0.00,,---,0.00,VWS V14.01,2013-01-21 13:36:00,
2013-01-21 07:41:00,-6.0,-14.4,29.12,NNW,341,5.8,5.8,66,0.00,,---,0.00,VWS V14.01,2013-01-21 13:41:00,
2013-01-21 07:46:00,-6.2,-14.6,29.12,NNW,344,14.5,14.5,66,0.00,,---,0.00,VWS V14.01,2013-01-21 13:46:00,
2013-01-21 07:51:00,-6.3,-14.7,29.12,West,278,10.1,14.5,66,0.00,,---,0.00,VWS V14.01,2013-01-21 13:51:00,
2013-01-21 07:57:00,-6.3,-14.7,29.12,NW,319,11.0,12.3,66,0.00,,---,0.00,VWS V14.01,2013-01-21 13:57:00,
2013-01-21 08:03:00,-6.5,-14.9,29.12,West,263,8.1,9.2,66,0.00,,---,0.00,VWS V14.01,2013-01-21 14:03:00,
2013-01-21 08:08:00,-6.5,-14.9,29.12,North,353,7.6,13.2,66,0.00,,---,0.00,VWS V14.01,2013-01-21 14:08:00,
2013-01-21 08:13:00,-6.5,-14.9,29.12,WNW,285,6.3,10.1,66,0.00,,---,0.00,VWS V14.01,2013-01-21 14:13:00,
2013-01-21 08:18:00,-6.5,-14.9,29.12,WNW,287,7.6,10.1,66,0.00,,---,0.00,VWS V14.01,2013-01-21 14:18:00,
2013-01-21 08:24:00,-6.3,-14.7,29.12,WSW,246,6.3,8.3,66,0.00,,---,0.00,VWS V14.01,2013-01-21 14:24:00,
2013-01-21 08:30:00,-6.2,-14.6,29.12,West,281,9.2,10.5,66,0.00,,---,0.00,VWS V14.01,2013-01-21 14:30:00,
2013-01-21 08:35:00,-6.2,-14.6,29.12,NW,321,5.8,8.7,66,0.00,,---,0.00,VWS V14.01,2013-01-21 14:35:00,
2013-01-21 08:41:00,-6.3,-14.7,29.12,NNW,327,12.8,12.8,66,0.00,,---,0.00,VWS V14.01,2013-01-21 14:41:00,
2013-01-21 08:46:00,-6.5,-14.9,29.15,North,353,11.9,13.6,66,0.00,,---,0.00,VWS V14.01,2013-01-21 14:46:00,
2013-01-21 08:52:00,-6.5,-14.9,29.15,WNW,302,7.6,8.3,66,0.00,,---,0.00,VWS V14.01,2013-01-21 14:52:00,
2013-01-21 08:57:00,-6.5,-14.9,29.15,North,0,7.6,10.1,66,0.00,,---,0.00,VWS V14.01,2013-01-21 14:57:00,
2013-01-21 09:02:00,-6.3,-14.7,29.15,NW,315,10.5,15.0,66,0.00,,---,0.00,VWS V14.01,2013-01-21 15:02:00,
2013-01-21 09:07:00,-6.5,-14.9,29.15,NNW,344,8.3,13.2,66,0.00,,---,0.00,VWS V14.01,2013-01-21 15:07:00,
2013-01-21 09:13:00,-6.3,-14.7,29.15,NNW,336,8.7,8.7,66,0.00,,---,0.00,VWS V14.01,2013-01-21 15:13:00,
2013-01-21 09:18:00,-6.3,-14.7,29.15,NNW,339,7.6,11.0,66,0.00,,---,0.00,VWS V14.01,2013-01-21 15:18:00,
2013-01-21 09:24:00,-5.1,-13.5,29.15,NW,320,19.7,19.7,66,0.00,,---,0.00,VWS V14.01,2013-01-21 15:24:00,
2013-01-21 09:30:00,-5.1,-13.5,29.15,North,8,5.8,11.0,66,0.00,,---,0.00,VWS V14.01,2013-01-21 15:30:00,
2013-01-21 09:35:00,-5.3,-13.7,29.15,North,357,10.1,13.2,66,0.00,,---,0.00,VWS V14.01,2013-01-21 15:35:00,
2013-01-21 09:40:00,-4.7,-13.2,29.15,WNW,287,6.3,9.6,66,0.00,,---,0.00,VWS V14.01,2013-01-21 15:40:00,
2013-01-21 09:45:00,-4.7,-13.2,29.15,NNW,334,8.1,15.0,66,0.00,,---,0.00,VWS V14.01,2013-01-21 15:45:00,
2013-01-21 09:51:00,-4.9,-13.3,29.15,NW,306,10.1,11.0,66,0.00,,---,0.00,VWS V14.01,2013-01-21 15:51:00,
2013-01-21 09:56:00,-4.4,-12.8,29.15,West,273,14.5,14.5,66,0.00,,---,0.00,VWS V14.01,2013-01-21 15:56:00,
2013-01-21 10:02:00,-4.4,-12.8,29.15,NW,311,5.4,13.2,66,0.00,,---,0.00,VWS V14.01,2013-01-21 16:02:00,
2013-01-21 10:07:00,-4.2,-12.6,29.15,North,350,7.6,7.6,66,0.00,,---,0.00,VWS V14.01,2013-01-21 16:07:00,
2013-01-21 10:12:00,-4.4,-12.8,29.15,WSW,253,11.0,11.0,66,0.00,,---,0.00,VWS V14.01,2013-01-21 16:12:00,
2013-01-21 10:17:00,-4.0,-12.5,29.18,NNW,331,8.3,12.3,66,0.00,,---,0.00,VWS V14.01,2013-01-21 16:17:00,
2013-01-21 10:23:00,-4.4,-12.8,29.18,North,353,6.3,14.5,66,0.00,,---,0.00,VWS V14.01,2013-01-21 16:23:00,
2013-01-21 10:28:00,-3.8,-12.3,29.18,NW,316,8.1,12.3,66,0.00,,---,0.00,VWS V14.01,2013-01-21 16:28:00,
2013-01-21 10:33:00,-3.8,-12.3,29.15,NNW,341,15.9,15.9,66,0.00,,---,0.00,VWS V14.01,2013-01-21 16:33:00,
2013-01-21 10:38:00,-3.5,-12.0,29.15,WNW,290,7.6,7.6,66,0.00,,---,0.00,VWS V14.01,2013-01-21 16:38:00,
2013-01-21 10:44:00,-3.5,-12.0,29.15,NW,321,10.5,12.8,66,0.00,,---,0.00,VWS V14.01,2013-01-21 16:44:00,
2013-01-21 10:49:00,-3.3,-11.8,29.15,NNW,346,2.7,8.1,66,0.00,,---,0.00,VWS V14.01,2013-01-21 16:49:00,
2013-01-21 10:54:00,-3.6,-12.1,29.15,West,259,5.4,9.6,66,0.00,,---,0.00,VWS V14.01,2013-01-21 16:54:00,
2013-01-21 10:59:00,-4.0,-12.5,29.15,NW,305,12.3,12.3,66,0.00,,---,0.00,VWS V14.01,2013-01-21 16:59:00,
2013-01-21 11:05:00,-3.6,-12.1,29.18,WSW,253,8.1,8.7,66,0.00,,---,0.00,VWS V14.01,2013-01-21 17:05:00,
2013-01-21 11:10:00,-3.8,-12.3,29.18,North,3,12.3,12.3,66,0.00,,---,0.00,VWS V14.01,2013-01-21 17:10:00,
2013-01-21 11:15:00,-3.1,-11.6,29.15,NNW,329,11.0,14.5,66,0.00,,---,0.00,VWS V14.01,2013-01-21 17:15:00,
2013-01-21 11:20:00,-3.5,-12.0,29.15,NW,324,10.1,10.1,66,0.00,,---,0.00,VWS V14.01,2013-01-21 17:20:00,
2013-01-21 11:25:00,-3.8,-12.3,29.15,WNW,288,11.0,12.3,66,0.00,,---,0.00,VWS V14.01,2013-01-21 17:25:00,
2013-01-21 11:30:00,-3.5,-12.0,29.15,NW,326,7.6,15.4,66,0.00,,---,0.00,VWS V14.01,2013-01-21 17:30:00,
2013-01-21 11:36:00,-2.7,-11.3,29.15,West,263,11.0,15.9,66,0.00,,---,0.00,VWS V14.01,2013-01-21 17:36:00,
2013-01-21 11:41:00,-2.7,-11.3,29.15,WSW,256,8.3,12.8,66,0.00,,---,0.00,VWS V14.01,2013-01-21 17:41:00,
2013-01-21 11:46:00,-2.6,-11.1,29.12,WNW,299,14.5,14.5,66,0.00,,---,0.00,VWS V14.01,2013-01-21 17:46:00,
2013-01-21 11:51:00,-2.4,-10.9,29.12,North,353,13.2,13.2,66,0.00,,---,0.00,VWS V14.01,2013-01-21 17:51:00,
2013-01-21 11:57:00,-2.2,-10.8,29.12,WNW,299,13.6,13.6,66,0.00,,---,0.00,VWS V14.01,2013-01-21 17:57:00,
2013-01-21 12:02:00,-2.2,-10.8,29.15,WNW,296,8.1,13.2,66,0.00,,---,0.00,VWS V14.01,2013-01-21 18:02:00,
2013-01-21 12:08:00,-1.3,-9.9,29.15,West,275,12.8,16.8,66,0.00,,---,0.00,VWS V14.01,2013-01-21 18:08:00,
2013-01-21 12:13:00,-2.2,-10.8,29.15,NW,323,10.1,15.4,66,0.00,,---,0.00,VWS V14.01,2013-01-21 18:13:00,
2013-01-21 12:19:00,-2.9,-11.4,29.15,NW,305,7.6,8.1,66,0.00,,---,0.00,VWS V14.01,2013-01-21 18:19:00,
2013-01-21 12:24:00,-2.0,-10.6,29.15,NW,323,11.9,11.9,66,0.00,,---,0.00,VWS V14.01,2013-01-21 18:24:00,
2013-01-21 12:30:00,-2.0,-10.6,29.15,NW,306,12.8,12.8,66,0.00,,---,0.00,VWS V14.01,2013-01-21 18:30:00,
2013-01-21 12:36:00,-2.2,-10.8,29.15,NW,306,8.3,10.5,66,0.00,,---,0.00,VWS V14.01,2013-01-21 18:36:00,
2013-01-21 12:41:00,-1.8,-10.4,29.15,NNW,339,16.8,16.8,66,0.00,,---,0.00,VWS V14.01,2013-01-21 18:41:00,
2013-01-21 12:47:00,-1.5,-10.1,29.12,WSW,246,12.8,15.4,66,0.00,,---,0.00,VWS V14.01,2013-01-21 18:47:00,
2013-01-21 12:53:00,-1.7,-10.2,29.12,West,273,12.8,15.4,66,0.00,,---,0.00,VWS V14.01,2013-01-21 18:53:00,
2013-01-21 12:58:00,-2.0,-10.6,29.12,North,357,12.3,17.0,66,0.00,,---,0.00,VWS V14.01,2013-01-21 18:58:00,
2013-01-21 13:04:00,-2.0,-10.6,29.12,NNW,339,10.1,12.8,66,0.00,,---,0.00,VWS V14.01,2013-01-21 19:04:00,
2013-01-21 13:10:00,-2.2,-10.8,29.12,NW,308,7.6,12.8,66,0.00,,---,0.00,VWS V14.01,2013-01-21 19:10:00,
2013-01-21 13:16:00,-2.6,-11.1,29.12,North,0,5.8,11.0,66,0.00,,---,0.00,VWS V14.01,2013-01-21 19:16:00,
2013-01-21 13:21:00,-2.6,-11.1,29.12,West,263,8.3,13.2,66,0.00,,---,0.00,VWS V14.01,2013-01-21 19:21:00,
2013-01-21 13:26:00,-2.0,-10.6,29.12,NNW,334,8.1,15.9,66,0.00,,---,0.00,VWS V14.01,2013-01-21 19:26:00,
2013-01-21 13:32:00,-2.2,-10.8,29.12,NW,319,8.1,8.1,66,0.00,,---,0.00,VWS V14.01,2013-01-21 19:32:00,
2013-01-21 13:37:00,-2.2,-10.8,29.12,WNW,283,10.5,15.0,66,0.00,,---,0.00,VWS V14.01,2013-01-21 19:37:00,
2013-01-21 13:43:00,-3.3,-11.8,29.12,NNW,341,15.4,15.4,66,0.00,,---,0.00,VWS V14.01,2013-01-21 19:43:00,
2013-01-21 13:48:00,-3.3,-11.8,29.12,NW,305,6.3,12.8,66,0.00,,---,0.00,VWS V14.01,2013-01-21 19:48:00,
2013-01-21 13:54:00,-3.3,-11.8,29.12,WNW,297,5.4,10.5,66,0.00,,---,0.00,VWS V14.01,2013-01-21 19:54:00,
2013-01-21 13:59:00,-2.6,-11.1,29.12,WNW,286,4.9,5.8,66,0.00,,---,0.00,VWS V14.01,2013-01-21 19:59:00,
2013-01-21 14:04:00,-2.7,-11.3,29.12,NNW,335,5.8,8.3,66,0.00,,---,0.00,VWS V14.01,2013-01-21 20:04:00,
2013-01-21 14:09:00,-2.9,-11.4,29.12,North,357,11.0,11.0,66,0.00,,---,0.00,VWS V14.01,2013-01-21 20:09:00,
2013-01-21 14:15:00,-2.4,-10.9,29.12,West,264,6.3,11.9,66,0.00,,---,0.00,VWS V14.01,2013-01-21 20:15:00,
2013-01-21 14:21:00,-2.7,-11.3,29.12,NNW,348,11.0,11.0,66,0.00,,---,0.00,VWS V14.01,2013-01-21 20:21:00,
2013-01-21 14:26:00,-2.7,-11.3,29.12,WNW,301,7.6,10.1,66,0.00,,---,0.00,VWS V14.01,2013-01-21 20:26:00,
2013-01-21 14:32:00,-2.9,-11.4,29.12,NW,311,6.3,17.4,66,0.00,,---,0.00,VWS V14.01,2013-01-21 20:32:00,
2013-01-21 14:37:00,-3.1,-11.6,29.12,NNW,335,16.3,16.3,66,0.00,,---,0.00,VWS V14.01,2013-01-21 20:37:00,
2013-01-21 14:43:00,-3.1,-11.6,29.12,WNW,297,5.8,10.1,66,0.00,,---,0.00,VWS V14.01,2013-01-21 20:43:00,
2013-01-21 14:49:00,-2.6,-11.1,29.15,North,357,10.1,12.3,66,0.00,,---,0.00,VWS V14.01,2013-01-21 20:49:00,
2013-01-21 14:54:00,-1.8,-10.4,29.15,West,274,8.7,10.5,66,0.00,,---,0.00,VWS V14.01,2013-01-21 20:54:00,
2013-01-21 15:00:00,-2.9,-11.4,29.15,North,0,10.1,10.1,66,0.00,,---,0.00,VWS V14.01,2013-01-21 21:00:00,
2013-01-21 15:05:00,-3.1,-11.6,29.15,NNW,342,14.5,15.0,66,0.00,,---,0.00,VWS V14.01,2013-01-21 21:05:00,
2013-01-21 15:10:00,-3.1,-11.6,29.15,WSW,245,5.8,13.2,66,0.00,,---,0.00,VWS V14.01,2013-01-21 21:10:00,
2013-01-21 15:15:00,-2.6,-11.1,29.15,North,0,13.2,13.2,66,0.00,,---,0.00,VWS V14.01,2013-01-21 21:15:00,
2013-01-21 15:21:00,-2.6,-11.1,29.15,WNW,300,9.6,11.0,66,0.00,,---,0.00,VWS V14.01,2013-01-21 21:21:00,
2013-01-21 15:26:00,-2.6,-11.1,29.15,NW,326,5.4,7.2,66,0.00,,---,0.00,VWS V14.01,2013-01-21 21:26:00,
2013-01-21 15:31:00,-2.6,-11.1,29.15,NW,316,6.3,13.2,66,0.00,,---,0.00,VWS V14.01,2013-01-21 21:31:00,
2013-01-21 15:36:00,-3.1,-11.6,29.15,West,264,4.9,8.3,66,0.00,,---,0.00,VWS V14.01,2013-01-21 21:36:00,
2013-01-21 15:41:00,-3.6,-12.1,29.15,WSW,252,5.4,10.1,66,0.00,,---,0.00,VWS V14.01,2013-01-21 21:41:00,
2013-01-21 15:46:00,-3.8,-12.3,29.15,WSW,254,8.7,12.3,66,0.00,,---,0.00,VWS V14.01,2013-01-21 21:46:00,
2013-01-21 15:52:00,-4.4,-12.8,29.15,NW,316,14.1,14.1,66,0.00,,---,0.00,VWS V14.01,2013-01-21 21:52:00,
2013-01-21 15:57:00,-4.7,-13.2,29.15,WNW,302,11.0,12.8,66,0.00,,---,0.00,VWS V14.01,2013-01-21 21:57:00,
2013-01-21 16:03:00,-4.9,-13.3,29.15,North,4,7.6,15.0,66,0.00,,---,0.00,VWS V14.01,2013-01-21 22:03:00,
2013-01-21 16:08:00,-5.1,-13.5,29.15,WNW,286,12.3,12.3,66,0.00,,---,0.00,VWS V14.01,2013-01-21 22:08:00,
2013-01-21 16:14:00,-5.3,-13.7,29.15,West,271,8.1,8.1,66,0.00,,---,0.00,VWS V14.01,2013-01-21 22:14:00,
2013-01-21 16:19:00,-5.6,-14.0,29.15,West,266,12.8,12.8,66,0.00,,---,0.00,VWS V14.01,2013-01-21 22:19:00,
2013-01-21 16:25:00,-6.0,-14.4,29.15,West,266,9.2,11.0,66,0.00,,---,0.00,VWS V14.01,2013-01-21 22:25:00,
2013-01-21 16:31:00,-6.2,-14.6,29.15,WNW,299,8.7,9.6,66,0.00,,---,0.00,VWS V14.01,2013-01-21 22:31:00,
2013-01-21 16:36:00,-6.2,-14.6,29.15,NNW,341,6.3,10.5,66,0.00,,---,0.00,VWS V14.01,2013-01-21 22:36:00,
2013-01-21 16:42:00,-6.3,-14.7,29.15,NW,311,3.1,7.6,66,0.00,,---,0.00,VWS V14.01,2013-01-21 22:42:00,
2013-01-21 16:47:00,-6.3,-14.7,29.15,WNW,286,4.0,5.8,66,0.00,,---,0.00,VWS V14.01,2013-01-21 22:47:00,
2013-01-21 16:53:00,-6.3,-14.7,29.15,NNW,342,5.8,12.3,66,0.00,,---,0.00,VWS V14.01,2013-01-21 22:53:00,
2013-01-21 16:58:00,-6.5,-14.9,29.15,West,281,8.1,8.1,66,0.00,,---,0.00,VWS V14.01,2013-01-21 22:58:00,
2013-01-21 17:03:00,-6.7,-15.1,29.15,NW,309,5.8,10.5,66,0.00,,---,0.00,VWS V14.01,2013-01-21 23:03:00,
2013-01-21 17:09:00,-6.9,-15.2,29.15,NW,307,5.8,8.1,66,0.00,,---,0.00,VWS V14.01,2013-01-21 23:09:00,
2013-01-21 17:14:00,-6.9,-15.2,29.15,WNW,290,3.6,7.6,66,0.00,,---,0.00,VWS V14.01,2013-01-21 23:14:00,
2013-01-21 17:20:00,-6.9,-15.2,29.15,NW,311,3.1,8.1,66,0.00,,---,0.00,VWS V14.01,2013-01-21 23:20:00,
2013-01-21 17:25:00,-6.9,-15.2,29.15,North,349,4.9,6.3,66,0.00,,---,0.00,VWS V14.01,2013-01-21 23:25:00,
2013-01-21 17:31:00,-7.2,-15.6,29.18,NW,309,7.6,8.3,66,0.00,,---,0.00,VWS V14.01,2013-01-21 23:31:00,
2013-01-21 17:37:00,-7.4,-15.8,29.18,NW,315,6.3,6.3,66,0.00,,---,0.00,VWS V14.01,2013-01-21 23:37:00,
2013-01-21 17:42:00,-7.4,-15.8,29.18,WNW,301,4.9,8.1,66,0.00,,---,0.00,VWS V14.01,2013-01-21 23:42:00,
2013-01-21 17:47:00,-7.6,-15.9,29.18,WNW,289,10.1,10.1,66,0.00,,---,0.00,VWS V14.01,2013-01-21 23:47:00,
2013-01-21 17:52:00,-7.8,-16.1,29.18,West,267,7.6,7.6,66,0.00,,---,0.00,VWS V14.01,2013-01-21 23:52:00,
2013-01-21 17:58:00,-7.8,-16.1,29.18,WNW,301,5.8,5.8,66,0.00,,---,0.00,VWS V14.01,2013-01-21 23:58:00,
2013-01-21 18:03:00,-8.0,-16.3,29.15,NW,305,5.8,7.2,66,0.00,,---,0.00,VWS V14.01,2013-01-22 00:03:00,
2013-01-21 18:09:00,-8.0,-16.3,29.15,NNW,335,5.8,5.8,66,0.00,,---,0.00,VWS V14.01,2013-01-22 00:09:00,
2013-01-21 18:14:00,-8.0,-16.3,29.18,WNW,303,3.6,7.6,66,0.00,,---,0.00,VWS V14.01,2013-01-22 00:14:00,
2013-01-21 18:20:00,-8.0,-16.3,29.18,NW,311,5.4,10.5,66,0.00,,---,0.00,VWS V14.01,2013-01-22 00:20:00,
2013-01-21 18:25:00,-8.1,-16.4,29.18,NNW,346,9.6,11.0,66,0.00,,---,0.00,VWS V14.01,2013-01-22 00:25:00,
2013-01-21 18:31:00,-8.1,-16.4,29.18,NNW,329,10.1,10.1,66,0.00,,---,0.00,VWS V14.01,2013-01-22 00:31:00,
2013-01-21 18:37:00,-8.1,-16.4,29.18,WNW,290,5.8,6.3,66,0.00,,---,0.00,VWS V14.01,2013-01-22 00:37:00,
2013-01-21 18:43:00,-8.1,-16.4,29.18,WNW,289,8.1,8.3,66,0.00,,---,0.00,VWS V14.01,2013-01-22 00:43:00,
2013-01-21 18:49:00,-8.1,-16.4,29.18,WNW,296,2.2,5.8,66,0.00,,---,0.00,VWS V14.01,2013-01-22 00:49:00,
2013-01-21 18:55:00,-8.3,-16.6,29.18,WNW,283,3.6,3.6,66,0.00,,---,0.00,VWS V14.01,2013-01-22 00:55:00,
2013-01-21 19:00:00,-8.5,-16.8,29.18,NNW,333,3.1,10.1,66,0.00,,---,0.00,VWS V14.01,2013-01-22 01:00:00,
2013-01-21 19:06:00,-8.5,-16.8,29.18,NW,319,4.0,5.4,66,0.00,,---,0.00,VWS V14.01,2013-01-22 01:06:00,
2013-01-21 19:12:00,-8.7,-17.0,29.18,NW,323,5.4,8.7,66,0.00,,---,0.00,VWS V14.01,2013-01-22 01:12:00,
2013-01-21 19:17:00,-8.7,-17.0,29.21,NW,316,2.7,6.3,66,0.00,,---,0.00,VWS V14.01,2013-01-22 01:17:00,
2013-01-21 19:22:00,-8.7,-17.0,29.21,NW,320,3.6,6.3,66,0.00,,---,0.00,VWS V14.01,2013-01-22 01:22:00,
2013-01-21 19:28:00,-8.7,-17.0,29.21,NW,313,6.7,6.7,66,0.00,,---,0.00,VWS V14.01,2013-01-22 01:28:00,
2013-01-21 19:34:00,-8.7,-17.0,29.21,WNW,287,4.0,5.8,66,0.00,,---,0.00,VWS V14.01,2013-01-22 01:34:00,
2013-01-21 19:40:00,-8.7,-17.0,29.21,NNW,339,5.8,5.8,66,0.00,,---,0.00,VWS V14.01,2013-01-22 01:40:00,
2013-01-21 19:45:00,-8.7,-17.0,29.21,West,279,5.4,6.3,66,0.00,,---,0.00,VWS V14.01,2013-01-22 01:45:00,
2013-01-21 19:51:00,-8.9,-17.1,29.21,WNW,292,5.8,5.8,66,0.00,,---,0.00,VWS V14.01,2013-01-22 01:51:00,
2013-01-21 19:56:00,-8.9,-17.1,29.21,West,277,3.1,3.1,66,0.00,,---,0.00,VWS V14.01,2013-01-22 01:56:00,
2013-01-21 20:01:00,-8.9,-17.1,29.21,NNW,336,5.4,5.8,66,0.00,,---,0.00,VWS V14.01,2013-01-22 02:01:00,
2013-01-21 20:06:00,-8.9,-17.1,29.21,West,280,4.0,5.8,66,0.00,,---,0.00,VWS V14.01,2013-01-22 02:06:00,
2013-01-21 20:12:00,-9.0,-17.3,29.21,WNW,296,2.7,4.0,66,0.00,,---,0.00,VWS V14.01,2013-01-22 02:12:00,
2013-01-21 20:17:00,-9.2,-17.5,29.21,NW,325,3.1,3.1,66,0.00,,---,0.00,VWS V14.01,2013-01-22 02:17:00,
2013-01-21 20:22:00,-9.2,-17.5,29.21,NW,310,5.4,6.3,66,0.00,,---,0.00,VWS V14.01,2013-01-22 02:22:00,
2013-01-21 20:27:00,-9.2,-17.5,29.21,NW,323,4.9,5.4,66,0.00,,---,0.00,VWS V14.01,2013-01-22 02:27:00,
2013-01-21 20:33:00,-9.2,-17.5,29.21,NNW,330,7.6,7.6,66,0.00,,---,0.00,VWS V14.01,2013-01-22 02:33:00,
2013-01-21 20:38:00,-9.2,-17.5,29.21,NNW,337,5.4,5.4,66,0.00,,---,0.00,VWS V14.01,2013-01-22 02:38:00,
2013-01-21 20:44:00,-9.2,-17.5,29.21,NNW,332,6.3,7.6,66,0.00,,---,0.00,VWS V14.01,2013-01-22 02:44:00,
2013-01-21 20:50:00,-9.2,-17.5,29.21,WNW,291,5.4,7.2,66,0.00,,---,0.00,VWS V14.01,2013-01-22 02:50:00,
2013-01-21 20:55:00,-9.2,-17.5,29.21,NW,306,3.6,5.8,66,0.00,,---,0.00,VWS V14.01,2013-01-22 02:55:00,
2013-01-21 21:01:00,-9.4,-17.6,29.21,WNW,297,3.6,6.3,66,0.00,,---,0.00,VWS V14.01,2013-01-22 03:01:00,
2013-01-21 21:06:00,-9.4,-17.6,29.21,NW,310,5.4,5.4,66,0.00,,---,0.00,VWS V14.01,2013-01-22 03:06:00,
2013-01-21 21:11:00,-9.4,-17.6,29.21,NW,317,3.6,4.0,66,0.00,,---,0.00,VWS V14.01,2013-01-22 03:11:00,
2013-01-21 21:16:00,-9.6,-17.8,29.21,West,281,6.3,6.3,66,0.00,,---,0.00,VWS V14.01,2013-01-22 03:16:00,
2013-01-21 21:22:00,-9.6,-17.8,29.21,WNW,296,3.6,5.8,66,0.00,,---,0.00,VWS V14.01,2013-01-22 03:22:00,
2013-01-21 21:27:00,-9.6,-17.8,29.21,NW,314,5.4,6.3,66,0.00,,---,0.00,VWS V14.01,2013-01-22 03:27:00,
2013-01-21 21:33:00,-9.6,-17.8,29.21,WNW,292,5.8,7.6,66,0.00,,---,0.00,VWS V14.01,2013-01-22 03:33:00,
2013-01-21 21:39:00,-9.6,-17.8,29.21,NW,309,5.8,7.6,66,0.00,,---,0.00,VWS V14.01,2013-01-22 03:39:00,
2013-01-21 21:44:00,-9.6,-17.8,29.21,NW,313,4.9,8.1,66,0.00,,---,0.00,VWS V14.01,2013-01-22 03:44:00,
2013-01-21 21:49:00,-9.8,-18.0,29.21,NW,321,5.8,5.8,66,0.00,,---,0.00,VWS V14.01,2013-01-22 03:49:00,
2013-01-21 21:54:00,-9.8,-18.0,29.21,NNW,335,3.6,5.8,66,0.00,,---,0.00,VWS V14.01,2013-01-22 03:54:00,
2013-01-21 22:00:00,-9.8,-18.0,29.21,NW,312,4.9,4.9,66,0.00,,---,0.00,VWS V14.01,2013-01-22 04:00:00,
2013-01-21 22:05:00,-9.9,-18.2,29.21,WNW,293,4.9,6.3,66,0.00,,---,0.00,VWS V14.01,2013-01-22 04:05:00,
2013-01-21 22:11:00,-9.9,-18.2,29.21,NW,313,3.1,5.4,66,0.00,,---,0.00,VWS V14.01,2013-01-22 04:11:00,
2013-01-21 22:16:00,-9.9,-18.2,29.21,WNW,287,5.8,8.1,66,0.00,,---,0.00,VWS V14.01,2013-01-22 04:16:00,
2013-01-21 22:21:00,-9.9,-18.2,29.21,WNW,301,3.6,4.9,66,0.00,,---,0.00,VWS V14.01,2013-01-22 04:21:00,
2013-01-21 22:26:00,-9.9,-18.2,29.21,WNW,299,3.1,4.9,66,0.00,,---,0.00,VWS V14.01,2013-01-22 04:26:00,
2013-01-21 22:32:00,-10.1,-18.3,29.23,WNW,303,4.0,5.4,66,0.00,,---,0.00,VWS V14.01,2013-01-22 04:32:00,
2013-01-21 22:37:00,-10.1,-18.3,29.23,WNW,284,2.7,5.8,66,0.00,,---,0.00,VWS V14.01,2013-01-22 04:37:00,
2013-01-21 22:43:00,-10.1,-18.3,29.23,West,273,5.4,5.8,66,0.00,,---,0.00,VWS V14.01,2013-01-22 04:43:00,
2013-01-21 22:49:00,-10.1,-18.3,29.23,NW,311,5.8,6.3,66,0.00,,---,0.00,VWS V14.01,2013-01-22 04:49:00,
2013-01-21 22:54:00,-10.3,-18.5,29.23,WNW,302,5.4,5.8,66,0.00,,---,0.00,VWS V14.01,2013-01-22 04:54:00,
2013-01-21 23:01:00,-10.3,-18.5,29.23,WNW,301,4.0,4.5,66,0.00,,---,0.00,VWS V14.01,2013-01-22 05:01:00,
2013-01-21 23:02:00,-10.3,-18.5,29.23,NW,306,6.3,6.3,66,0.00,,---,0.00,VWS V14.01,2013-01-22 05:02:00,
2013-01-21 23:03:00,-10.3,-18.5,29.23,NW,308,4.0,6.3,66,0.00,,---,0.00,VWS V14.01,2013-01-22 05:03:00,
2013-01-21 23:05:00,-10.3,-18.5,29.23,WNW,288,5.4,5.4,66,0.00,,---,0.00,VWS V14.01,2013-01-22 05:05:00,
2013-01-21 23:10:00,-10.3,-18.5,29.23,NW,312,6.3,6.3,66,0.00,,---,0.00,VWS V14.01,2013-01-22 05:10:00,
2013-01-21 23:15:00,-10.3,-18.5,29.23,NW,313,3.6,6.3,66,0.00,,---,0.00,VWS V14.01,2013-01-22 05:15:00,
2013-01-21 23:21:00,-10.5,-18.7,29.23,WNW,291,4.0,5.4,66,0.00,,---,0.00,VWS V14.01,2013-01-22 05:21:00,
2013-01-21 23:26:00,-10.5,-18.7,29.23,NW,325,7.2,7.6,66,0.00,,---,0.00,VWS V14.01,2013-01-22 05:26:00,
2013-01-21 23:32:00,-10.5,-18.7,29.23,WNW,300,4.0,5.8,66,0.00,,---,0.00,VWS V14.01,2013-01-22 05:32:00,
2013-01-21 23:38:00,-10.5,-18.7,29.23,North,357,2.7,5.4,66,0.00,,---,0.00,VWS V14.01,2013-01-22 05:38:00,
2013-01-21 23:43:00,-10.7,-18.9,29.23,WNW,284,5.4,6.3,66,0.00,,---,0.00,VWS V14.01,2013-01-22 05:43:00,
2013-01-21 23:48:00,-10.7,-18.9,29.23,WNW,287,3.6,6.3,66,0.00,,---,0.00,VWS V14.01,2013-01-22 05:48:00,
2013-01-21 23:53:00,-10.7,-18.9,29.23,WNW,297,3.1,5.4,66,0.00,,---,0.00,VWS V14.01,2013-01-22 05:53:00,
2013-01-21 23:59:00,-10.7,-18.9,29.21,WSW,255,4.0,4.0,66,0.00,,---,0.00,VWS V14.01,2013-01-22 05:59:00,